Time,TemperatureF,DewpointF,PressureIn,WindDirection,WindDirectionDegrees,WindSpeedMPH,WindSpeedGustMPH,Humidity,HourlyPrecipIn,Conditions,Clouds,dailyrainin,SolarRadiationWatts/m^2,SoftwareType,DateUTC
2013-05-16 00:01:00,62.2,47.7,29.75,SW,229,2.0,3.0,59,0.00,,CLR,0.00,0.00,VWS V14.01,2013-05-16 05:01:00,
2013-05-16 00:06:00,62.2,47.7,29.75,SW,225,2.0,5.0,59,0.00,,CLR,0.00,0.00,VWS V14.01,2013-05-16 05:06:00,
2013-05-16 00:11:00,62.2,47.7,29.76,SW,225,5.0,5.0,59,0.00,,CLR,0.00,0.00,VWS V14.01,2013-05-16 05:11:00,
2013-05-16 00:16:00,62.2,47.7,29.76,SW,215,3.0,5.0,59,0.00,,CLR,0.00,0.00,VWS V14.01,2013-05-16 05:16:00,
2013-05-16 00:21:00,62.3,47.8,29.76,SW,215,4.0,6.0,59,0.00,,CLR,0.00,0.00,VWS V14.01,2013-05-16 05:21:00,
2013-05-16 00:26:00,62.2,47.7,29.76,SW,220,3.0,6.0,59,0.00,,CLR,0.00,0.00,VWS V14.01,2013-05-16 05:26:00,
2013-05-16 00:31:00,62.0,47.5,29.76,SSW,210,5.0,5.0,59,0.00,,CLR,0.00,0.00,VWS V14.01,2013-05-16 05:31:00,
2013-05-16 00:36:00,61.9,47.9,29.76,SW,218,4.0,8.0,60,0.00,,CLR,0.00,0.00,VWS V14.01,2013-05-16 05:36:00,
2013-05-16 00:41:00,61.8,47.8,29.76,SW,215,3.0,8.0,60,0.00,,CLR,0.00,0.00,VWS V14.01,2013-05-16 05:41:00,
2013-05-16 00:46:00,61.6,47.6,29.76,SW,235,3.0,8.0,60,0.00,,CLR,0.00,0.00,VWS V14.01,2013-05-16 05:46:00,
2013-05-16 00:51:00,61.5,47.9,29.77,SW,225,4.0,8.0,61,0.00,,CLR,0.00,0.00,VWS V14.01,2013-05-16 05:51:00,
2013-05-16 00:56:00,61.2,47.7,29.77,SW,223,2.0,8.0,61,0.00,,CLR,0.00,0.00,VWS V14.01,2013-05-16 05:56:00,
2013-05-16 01:01:00,61.1,47.6,29.77,SW,217,3.0,5.0,61,0.00,,CLR,0.00,0.00,VWS V14.01,2013-05-16 06:01:00,
2013-05-16 01:07:00,60.9,47.8,29.77,SW,220,3.0,6.0,62,0.00,,CLR,0.00,0.00,VWS V14.01,2013-05-16 06:07:00,
2013-05-16 01:12:00,60.8,47.7,29.77,SW,223,3.0,6.0,62,0.00,,CLR,0.00,0.00,VWS V14.01,2013-05-16 06:12:00,
2013-05-16 01:17:00,60.7,47.6,29.77,SW,219,3.0,6.0,62,0.00,,CLR,0.00,0.00,VWS V14.01,2013-05-16 06:17:00,
2013-05-16 01:22:00,60.4,47.8,29.77,SW,228,2.0,6.0,63,0.00,,CLR,0.00,0.00,VWS V14.01,2013-05-16 06:22:00,
2013-05-16 01:27:00,60.5,47.9,29.77,SW,236,2.0,6.0,63,0.00,,CLR,0.00,0.00,VWS V14.01,2013-05-16 06:27:00,
2013-05-16 01:32:00,60.5,47.9,29.77,SW,236,0.0,2.0,63,0.00,,CLR,0.00,0.00,VWS V14.01,2013-05-16 06:32:00,
2013-05-16 01:37:00,60.5,47.9,29.77,SW,236,0.0,2.0,63,0.00,,CLR,0.00,0.00,VWS V14.01,2013-05-16 06:37:00,
2013-05-16 01:42:00,60.5,47.9,29.78,SW,236,1.0,2.0,63,0.00,,CLR,0.00,0.00,VWS V14.01,2013-05-16 06:42:00,
2013-05-16 01:47:00,59.1,47.4,29.78,North,5,0.0,2.0,65,0.00,,CLR,0.00,0.00,VWS V14.01,2013-05-16 06:47:00,
2013-05-16 01:52:00,58.6,47.7,29.78,North,5,0.0,2.0,67,0.00,,CLR,0.00,0.00,VWS V14.01,2013-05-16 06:52:00,
2013-05-16 01:57:00,58.2,47.7,29.78,North,5,0.0,2.0,68,0.00,,CLR,0.00,0.00,VWS V14.01,2013-05-16 06:57:00,
2013-05-16 02:02:00,58.0,47.9,29.78,North,5,0.0,0.0,69,0.00,,CLR,0.00,0.00,VWS V14.01,2013-05-16 07:02:00,
2013-05-16 02:07:00,57.8,47.7,29.78,North,5,0.0,1.0,69,0.00,,CLR,0.00,0.00,VWS V14.01,2013-05-16 07:07:00,
2013-05-16 02:12:00,57.5,47.8,29.78,North,5,0.0,1.0,70,0.00,,CLR,0.00,0.00,VWS V14.01,2013-05-16 07:12:00,
2013-05-16 02:17:00,57.3,48.0,29.78,North,5,0.0,1.0,71,0.00,,CLR,0.00,0.00,VWS V14.01,2013-05-16 07:17:00,
2013-05-16 02:22:00,56.8,47.5,29.78,North,5,0.0,1.0,71,0.00,,CLR,0.00,0.00,VWS V14.01,2013-05-16 07:22:00,
2013-05-16 02:27:00,56.5,47.6,29.78,North,5,0.0,1.0,72,0.00,,CLR,0.00,0.00,VWS V14.01,2013-05-16 07:27:00,
2013-05-16 02:32:00,56.6,47.7,29.78,North,5,0.0,0.0,72,0.00,,CLR,0.00,0.00,VWS V14.01,2013-05-16 07:32:00,
2013-05-16 02:37:00,56.7,47.4,29.78,North,5,0.0,0.0,71,0.00,,CLR,0.00,0.00,VWS V14.01,2013-05-16 07:37:00,
2013-05-16 02:42:00,56.8,47.5,29.78,North,5,0.0,0.0,71,0.00,,CLR,0.00,0.00,VWS V14.01,2013-05-16 07:42:00,
2013-05-16 02:47:00,56.6,47.7,29.78,North,5,0.0,0.0,72,0.00,,CLR,0.00,0.00,VWS V14.01,2013-05-16 07:47:00,
2013-05-16 02:52:00,56.1,47.6,29.77,North,5,0.0,0.0,73,0.00,,CLR,0.00,0.00,VWS V14.01,2013-05-16 07:52:00,
2013-05-16 02:57:00,56.0,47.5,29.78,North,5,0.0,0.0,73,0.00,,CLR,0.00,0.00,VWS V14.01,2013-05-16 07:57:00,
2013-05-16 03:02:00,55.9,47.4,29.78,North,5,0.0,0.0,73,0.00,,FEW110,0.00,0.00,VWS V14.01,2013-05-16 08:02:00,
2013-05-16 03:07:00,55.8,47.3,29.78,North,5,0.0,0.0,73,0.00,,FEW110,0.00,0.00,VWS V14.01,2013-05-16 08:07:00,
2013-05-16 03:12:00,55.8,47.3,29.78,North,5,0.0,0.0,73,0.00,,FEW110,0.00,0.00,VWS V14.01,2013-05-16 08:12:00,
2013-05-16 03:17:00,55.6,47.5,29.78,North,5,1.0,1.0,74,0.00,,FEW110,0.00,0.00,VWS V14.01,2013-05-16 08:17:00,
2013-05-16 03:22:00,55.1,47.3,29.78,North,5,0.0,1.0,75,0.00,,FEW110,0.00,0.00,VWS V14.01,2013-05-16 08:22:00,
2013-05-16 03:27:00,55.1,47.3,29.78,North,5,0.0,1.0,75,0.00,,FEW110,0.00,0.00,VWS V14.01,2013-05-16 08:27:00,
2013-05-16 03:32:00,55.0,47.2,29.78,North,5,0.0,0.0,75,0.00,,FEW110,0.00,0.00,VWS V14.01,2013-05-16 08:32:00,
2013-05-16 03:37:00,54.9,47.1,29.78,North,5,0.0,0.0,75,0.00,,FEW110,0.00,0.00,VWS V14.01,2013-05-16 08:37:00,
2013-05-16 03:42:00,54.8,47.4,29.78,North,5,0.0,0.0,76,0.00,,FEW110,0.00,0.00,VWS V14.01,2013-05-16 08:42:00,
2013-05-16 03:47:00,54.7,47.3,29.78,North,5,0.0,0.0,76,0.00,,FEW110,0.00,0.00,VWS V14.01,2013-05-16 08:47:00,
2013-05-16 03:52:00,54.5,47.5,29.79,North,5,0.0,0.0,77,0.00,,FEW110,0.00,0.00,VWS V14.01,2013-05-16 08:52:00,
2013-05-16 03:57:00,54.4,47.0,29.79,North,5,0.0,0.0,76,0.00,,FEW110,0.00,0.00,VWS V14.01,2013-05-16 08:57:00,
2013-05-16 04:02:00,54.2,47.2,29.79,North,5,0.0,0.0,77,0.00,,FEW100,0.00,0.00,VWS V14.01,2013-05-16 09:02:00,
2013-05-16 04:07:00,54.0,47.3,29.79,North,5,1.0,1.0,78,0.00,,FEW100,0.00,0.00,VWS V14.01,2013-05-16 09:07:00,
2013-05-16 04:12:00,54.0,47.3,29.79,North,5,0.0,1.0,78,0.00,,FEW100,0.00,0.00,VWS V14.01,2013-05-16 09:12:00,
2013-05-16 04:17:00,54.1,47.1,29.79,North,5,0.0,1.0,77,0.00,,FEW100,0.00,0.00,VWS V14.01,2013-05-16 09:17:00,
2013-05-16 04:22:00,54.1,47.1,29.79,North,5,0.0,1.0,77,0.00,,FEW100,0.00,0.00,VWS V14.01,2013-05-16 09:22:00,
2013-05-16 04:27:00,53.9,46.9,29.79,North,5,0.0,1.0,77,0.00,,FEW100,0.00,0.00,VWS V14.01,2013-05-16 09:27:00,
2013-05-16 04:32:00,53.7,47.0,29.79,North,5,0.0,0.0,78,0.00,,FEW100,0.00,0.00,VWS V14.01,2013-05-16 09:32:00,
2013-05-16 04:37:00,53.3,47.0,29.79,North,5,0.0,0.0,79,0.00,,FEW100,0.00,0.00,VWS V14.01,2013-05-16 09:37:00,
2013-05-16 04:42:00,53.3,47.0,29.79,North,5,0.0,0.0,79,0.00,,FEW100,0.00,0.00,VWS V14.01,2013-05-16 09:42:00,
2013-05-16 04:47:00,52.9,46.6,29.80,North,5,0.0,0.0,79,0.00,,FEW100,0.00,0.00,VWS V14.01,2013-05-16 09:47:00,
2013-05-16 04:52:00,52.6,46.6,29.80,North,5,0.0,0.0,80,0.00,,FEW100,0.00,0.00,VWS V14.01,2013-05-16 09:52:00,
2013-05-16 04:57:00,52.4,46.4,29.80,North,5,0.0,0.0,80,0.00,,FEW100,0.00,0.00,VWS V14.01,2013-05-16 09:57:00,
2013-05-16 05:02:00,52.3,46.7,29.79,North,5,0.0,0.0,81,0.00,,FEW100,0.00,0.00,VWS V14.01,2013-05-16 10:02:00,
2013-05-16 05:07:00,52.4,46.8,29.79,North,5,0.0,0.0,81,0.00,,FEW100,0.00,0.00,VWS V14.01,2013-05-16 10:07:00,
2013-05-16 05:12:00,52.2,46.2,29.80,North,5,0.0,1.0,80,0.00,,FEW100,0.00,0.00,VWS V14.01,2013-05-16 10:12:00,
2013-05-16 05:17:00,51.5,45.9,29.80,North,5,0.0,1.0,81,0.00,,FEW100,0.00,0.00,VWS V14.01,2013-05-16 10:17:00,
2013-05-16 05:22:00,51.2,45.9,29.80,North,5,0.0,1.0,82,0.00,,CLR,0.00,0.00,VWS V14.01,2013-05-16 10:22:00,
2013-05-16 05:27:00,50.8,45.5,29.80,North,5,0.0,1.0,82,0.00,,CLR,0.00,0.00,VWS V14.01,2013-05-16 10:27:00,
2013-05-16 05:32:00,50.4,45.8,29.80,North,5,1.0,1.0,84,0.00,,CLR,0.00,0.00,VWS V14.01,2013-05-16 10:32:00,
2013-05-16 05:37:00,50.3,45.3,29.80,North,5,2.0,2.0,83,0.00,,CLR,0.00,0.00,VWS V14.01,2013-05-16 10:37:00,
2013-05-16 05:42:00,49.1,44.8,29.81,NW,317,0.0,4.0,85,0.00,,CLR,0.00,5.00,VWS V14.01,2013-05-16 10:42:00,
2013-05-16 05:47:00,49.7,46.0,29.81,NW,317,0.0,4.0,87,0.00,,CLR,0.00,7.00,VWS V14.01,2013-05-16 10:47:00,
2013-05-16 05:52:00,50.0,46.0,29.81,NW,317,0.0,4.0,86,0.00,,CLR,0.00,9.00,VWS V14.01,2013-05-16 10:52:00,
2013-05-16 05:57:00,49.6,45.0,29.82,WSW,254,1.0,4.0,84,0.00,,CLR,0.00,12.00,VWS V14.01,2013-05-16 10:57:00,
2013-05-16 06:02:00,49.3,45.3,29.82,WSW,254,0.0,0.0,86,0.00,,CLR,0.00,14.00,VWS V14.01,2013-05-16 11:02:00,
2013-05-16 06:07:00,49.6,45.6,29.82,WSW,254,1.0,1.0,86,0.00,,CLR,0.00,16.00,VWS V14.01,2013-05-16 11:07:00,
2013-05-16 06:12:00,50.0,46.3,29.82,WSW,254,0.0,1.0,87,0.00,,CLR,0.00,16.00,VWS V14.01,2013-05-16 11:12:00,
2013-05-16 06:17:00,50.4,46.4,29.82,WSW,254,0.0,1.0,86,0.00,,CLR,0.00,21.00,VWS V14.01,2013-05-16 11:17:00,
2013-05-16 06:22:00,50.6,46.3,29.82,WSW,254,0.0,1.0,85,0.00,,CLR,0.00,21.00,VWS V14.01,2013-05-16 11:22:00,
2013-05-16 06:27:00,50.8,46.5,29.82,WSW,254,0.0,1.0,85,0.00,,CLR,0.00,21.00,VWS V14.01,2013-05-16 11:27:00,
2013-05-16 06:32:00,50.9,46.6,29.83,WSW,254,0.0,1.0,85,0.00,,CLR,0.00,28.00,VWS V14.01,2013-05-16 11:32:00,
2013-05-16 06:37:00,50.7,46.0,29.83,WSW,254,0.0,1.0,84,0.00,,CLR,0.00,26.00,VWS V14.01,2013-05-16 11:37:00,
2013-05-16 06:42:00,50.8,46.5,29.83,WSW,254,0.0,1.0,85,0.00,,CLR,0.00,33.00,VWS V14.01,2013-05-16 11:42:00,
2013-05-16 06:47:00,50.9,46.9,29.83,WSW,254,0.0,1.0,86,0.00,,CLR,0.00,39.00,VWS V14.01,2013-05-16 11:47:00,
2013-05-16 06:52:00,51.4,47.0,29.83,WSW,254,0.0,1.0,85,0.00,,CLR,0.00,46.00,VWS V14.01,2013-05-16 11:52:00,
2013-05-16 06:57:00,51.8,47.4,29.84,WSW,254,0.0,1.0,85,0.00,,CLR,0.00,32.00,VWS V14.01,2013-05-16 11:57:00,
2013-05-16 07:02:00,52.2,47.5,29.84,WSW,254,0.0,0.0,84,0.00,,CLR,0.00,32.00,VWS V14.01,2013-05-16 12:02:00,
2013-05-16 07:07:00,52.6,47.9,29.84,WSW,254,0.0,0.0,84,0.00,,CLR,0.00,58.00,VWS V14.01,2013-05-16 12:07:00,
2013-05-16 07:12:00,52.9,48.5,29.84,SE,132,0.0,0.0,85,0.00,,CLR,0.00,35.00,VWS V14.01,2013-05-16 12:12:00,
2013-05-16 07:17:00,53.4,49.0,29.84,SE,132,0.0,0.0,85,0.00,,CLR,0.00,83.00,VWS V14.01,2013-05-16 12:17:00,
2013-05-16 07:22:00,53.9,48.5,29.84,SE,132,0.0,1.0,82,0.00,,CLR,0.00,63.00,VWS V14.01,2013-05-16 12:22:00,
2013-05-16 07:27:00,55.1,49.0,29.84,SE,132,0.0,1.0,80,0.00,,CLR,0.00,39.00,VWS V14.01,2013-05-16 12:27:00,
2013-05-16 07:32:00,56.0,49.6,29.85,SE,132,0.0,0.0,79,0.00,,CLR,0.00,84.00,VWS V14.01,2013-05-16 12:32:00,
2013-05-16 07:37:00,56.7,49.6,29.85,SE,132,0.0,0.0,77,0.00,,CLR,0.00,93.00,VWS V14.01,2013-05-16 12:37:00,
2013-05-16 07:42:00,57.4,49.5,29.85,SE,132,0.0,0.0,75,0.00,,CLR,0.00,63.00,VWS V14.01,2013-05-16 12:42:00,
2013-05-16 07:47:00,57.9,50.0,29.85,SE,132,0.0,1.0,75,0.00,,CLR,0.00,95.00,VWS V14.01,2013-05-16 12:47:00,
2013-05-16 07:52:00,58.4,50.2,29.85,NNE,13,0.0,2.0,74,0.00,,CLR,0.00,83.00,VWS V14.01,2013-05-16 12:52:00,
2013-05-16 07:57:00,59.0,50.4,29.85,NNE,13,1.0,2.0,73,0.00,,CLR,0.00,54.00,VWS V14.01,2013-05-16 12:57:00,
2013-05-16 08:02:00,59.4,51.1,29.85,NNE,13,0.0,0.0,74,0.00,,CLR,0.00,53.00,VWS V14.01,2013-05-16 13:02:00,
2013-05-16 08:07:00,59.9,50.9,29.86,NNE,13,0.0,2.0,72,0.00,,CLR,0.00,76.00,VWS V14.01,2013-05-16 13:07:00,
2013-05-16 08:12:00,60.5,51.8,29.86,NNE,13,1.0,2.0,73,0.00,,CLR,0.00,56.00,VWS V14.01,2013-05-16 13:12:00,
2013-05-16 08:17:00,60.9,51.5,29.86,NNW,346,0.0,2.0,71,0.00,,CLR,0.00,114.00,VWS V14.01,2013-05-16 13:17:00,
2013-05-16 08:22:00,61.4,51.9,29.86,NNW,346,0.0,2.0,71,0.00,,CLR,0.00,123.00,VWS V14.01,2013-05-16 13:22:00,
2013-05-16 08:27:00,61.8,51.9,29.86,NNW,346,0.0,2.0,70,0.00,,CLR,0.00,165.00,VWS V14.01,2013-05-16 13:27:00,
2013-05-16 08:32:00,62.5,52.2,29.86,NNW,346,0.0,1.0,69,0.00,,CLR,0.00,107.00,VWS V14.01,2013-05-16 13:32:00,
2013-05-16 08:37:00,63.2,52.1,29.86,NNW,346,0.0,1.0,67,0.00,,CLR,0.00,141.00,VWS V14.01,2013-05-16 13:37:00,
2013-05-16 08:42:00,63.9,51.1,29.86,NE,52,1.0,2.0,63,0.00,,CLR,0.00,353.00,VWS V14.01,2013-05-16 13:42:00,
2013-05-16 08:47:00,64.8,51.5,29.86,NE,52,0.0,2.0,62,0.00,,CLR,0.00,364.00,VWS V14.01,2013-05-16 13:47:00,
2013-05-16 08:52:00,65.8,52.0,29.86,NE,52,0.0,2.0,61,0.00,,CLR,0.00,225.00,VWS V14.01,2013-05-16 13:52:00,
2013-05-16 08:57:00,66.6,51.4,29.86,NE,52,2.0,2.0,58,0.00,,CLR,0.00,257.00,VWS V14.01,2013-05-16 13:57:00,
2013-05-16 09:02:00,67.4,51.7,29.86,NE,52,0.0,2.0,57,0.00,,CLR,0.00,388.00,VWS V14.01,2013-05-16 14:02:00,
2013-05-16 09:07:00,68.0,52.2,29.86,NE,52,0.0,2.0,57,0.00,,CLR,0.00,494.00,VWS V14.01,2013-05-16 14:07:00,
2013-05-16 09:12:00,68.6,51.8,29.86,NE,53,1.0,2.0,55,0.00,,CLR,0.00,478.00,VWS V14.01,2013-05-16 14:12:00,
2013-05-16 09:17:00,69.0,51.2,29.86,ENE,71,1.0,2.0,53,0.00,,CLR,0.00,582.00,VWS V14.01,2013-05-16 14:17:00,
2013-05-16 09:22:00,69.4,50.5,29.86,ENE,74,1.0,2.0,51,0.00,,CLR,0.00,596.00,VWS V14.01,2013-05-16 14:22:00,
2013-05-16 09:28:00,69.7,49.7,29.87,ENE,74,0.0,2.0,49,0.00,,CLR,0.00,610.00,VWS V14.01,2013-05-16 14:28:00,
2013-05-16 09:33:00,70.1,50.1,29.87,ENE,74,0.0,2.0,49,0.00,,CLR,0.00,624.00,VWS V14.01,2013-05-16 14:33:00,
2013-05-16 09:38:00,70.6,48.2,29.87,ENE,74,1.0,2.0,45,0.00,,CLR,0.00,640.00,VWS V14.01,2013-05-16 14:38:00,
2013-05-16 09:43:00,71.1,48.7,29.87,ENE,74,1.0,2.0,45,0.00,,CLR,0.00,654.00,VWS V14.01,2013-05-16 14:43:00,
2013-05-16 09:48:00,71.5,47.8,29.87,ENE,74,1.0,2.0,43,0.00,,CLR,0.00,668.00,VWS V14.01,2013-05-16 14:48:00,
2013-05-16 09:53:00,71.6,47.9,29.87,ENE,74,1.0,3.0,43,0.00,,CLR,0.00,682.00,VWS V14.01,2013-05-16 14:53:00,
2013-05-16 09:58:00,72.0,47.7,29.87,ENE,74,1.0,3.0,42,0.00,,CLR,0.00,691.00,VWS V14.01,2013-05-16 14:58:00,
2013-05-16 10:03:00,72.3,48.0,29.87,ENE,74,1.0,2.0,42,0.00,,CLR,0.00,703.00,VWS V14.01,2013-05-16 15:03:00,
2013-05-16 10:08:00,72.8,47.1,29.87,East,82,2.0,3.0,40,0.00,,CLR,0.00,721.00,VWS V14.01,2013-05-16 15:08:00,
2013-05-16 10:13:00,72.9,47.8,29.87,East,82,1.0,3.0,41,0.00,,CLR,0.00,735.00,VWS V14.01,2013-05-16 15:13:00,
2013-05-16 10:18:00,73.3,48.8,29.87,NE,35,1.0,3.0,42,0.00,,CLR,0.00,737.00,VWS V14.01,2013-05-16 15:18:00,
2013-05-16 10:23:00,73.9,48.1,29.87,NE,35,1.0,3.0,40,0.00,,CLR,0.00,721.00,VWS V14.01,2013-05-16 15:23:00,
2013-05-16 10:28:00,74.2,47.7,29.87,NE,35,0.0,3.0,39,0.00,,CLR,0.00,731.00,VWS V14.01,2013-05-16 15:28:00,
2013-05-16 10:33:00,74.5,49.3,29.87,North,9,0.0,2.0,41,0.00,,CLR,0.00,777.00,VWS V14.01,2013-05-16 15:33:00,
2013-05-16 10:38:00,74.7,47.4,29.87,NE,54,2.0,2.0,38,0.00,,CLR,0.00,793.00,VWS V14.01,2013-05-16 15:38:00,
2013-05-16 10:43:00,74.9,47.6,29.87,ENE,67,3.0,3.0,38,0.00,,CLR,0.00,756.00,VWS V14.01,2013-05-16 15:43:00,
2013-05-16 10:48:00,75.1,48.5,29.87,ENE,67,2.0,3.0,39,0.00,,CLR,0.00,788.00,VWS V14.01,2013-05-16 15:48:00,
2013-05-16 10:53:00,75.4,48.0,29.87,ENE,67,0.0,3.0,38,0.00,,CLR,0.00,777.00,VWS V14.01,2013-05-16 15:53:00,
2013-05-16 10:58:00,75.6,48.2,29.86,ENE,74,1.0,3.0,38,0.00,,CLR,0.00,803.00,VWS V14.01,2013-05-16 15:58:00,
2013-05-16 11:03:00,75.7,46.9,29.87,ENE,78,2.0,3.0,36,0.00,,CLR,0.00,816.00,VWS V14.01,2013-05-16 16:03:00,
2013-05-16 11:08:00,75.7,48.3,29.87,ESE,118,2.0,3.0,38,0.00,,CLR,0.00,738.00,VWS V14.01,2013-05-16 16:08:00,
2013-05-16 11:13:00,76.0,46.4,29.87,East,79,1.0,3.0,35,0.00,,CLR,0.00,749.00,VWS V14.01,2013-05-16 16:13:00,
2013-05-16 11:18:00,76.2,45.8,29.86,East,79,0.0,3.0,34,0.00,,CLR,0.00,740.00,VWS V14.01,2013-05-16 16:18:00,
2013-05-16 11:23:00,76.3,45.9,29.86,ENE,73,2.0,3.0,34,0.00,,CLR,0.00,860.00,VWS V14.01,2013-05-16 16:23:00,
2013-05-16 11:28:00,76.8,46.3,29.87,ENE,58,1.0,3.0,34,0.00,,CLR,0.00,879.00,VWS V14.01,2013-05-16 16:28:00,
2013-05-16 11:33:00,77.1,47.4,29.86,NE,38,1.0,2.0,35,0.00,,CLR,0.00,673.00,VWS V14.01,2013-05-16 16:33:00,
2013-05-16 11:38:00,76.9,44.8,29.86,ESE,103,1.0,3.0,32,0.00,,CLR,0.00,914.00,VWS V14.01,2013-05-16 16:38:00,
2013-05-16 11:43:00,77.0,48.0,29.86,East,101,2.0,3.0,36,0.00,,CLR,0.00,846.00,VWS V14.01,2013-05-16 16:43:00,
2013-05-16 11:48:00,77.1,44.2,29.86,SE,133,1.0,3.0,31,0.00,,CLR,0.00,686.00,VWS V14.01,2013-05-16 16:48:00,
2013-05-16 11:53:00,76.8,47.1,29.85,SE,125,1.0,3.0,35,0.00,,CLR,0.00,912.00,VWS V14.01,2013-05-16 16:53:00,
2013-05-16 11:58:00,77.3,46.0,29.85,ESE,119,0.0,3.0,33,0.00,,CLR,0.00,888.00,VWS V14.01,2013-05-16 16:58:00,
2013-05-16 12:03:00,77.2,45.9,29.85,NNW,327,0.0,3.0,33,0.00,,CLR,0.00,919.00,VWS V14.01,2013-05-16 17:03:00,
2013-05-16 12:08:00,77.5,46.2,29.85,East,96,1.0,3.0,33,0.00,,CLR,0.00,954.00,VWS V14.01,2013-05-16 17:08:00,
2013-05-16 12:13:00,77.7,43.8,29.85,East,79,1.0,5.0,30,0.00,,CLR,0.00,965.00,VWS V14.01,2013-05-16 17:13:00,
2013-05-16 12:18:00,77.4,45.3,29.85,East,89,3.0,5.0,32,0.00,,CLR,0.00,1032.00,VWS V14.01,2013-05-16 17:18:00,
2013-05-16 12:23:00,77.3,43.5,29.85,ESE,123,0.0,5.0,30,0.00,,CLR,0.00,916.00,VWS V14.01,2013-05-16 17:23:00,
2013-05-16 12:28:00,77.1,42.4,29.84,ESE,110,1.0,5.0,29,0.00,,CLR,0.00,983.00,VWS V14.01,2013-05-16 17:28:00,
2013-05-16 12:33:00,77.7,45.5,29.84,NE,38,1.0,3.0,32,0.00,,CLR,0.00,991.00,VWS V14.01,2013-05-16 17:33:00,
2013-05-16 12:38:00,78.7,43.8,29.84,NW,311,8.0,9.0,29,0.00,,CLR,0.00,1018.00,VWS V14.01,2013-05-16 17:38:00,
2013-05-16 12:43:00,78.0,44.1,29.84,ENE,74,0.0,10.0,30,0.00,,CLR,0.00,638.00,VWS V14.01,2013-05-16 17:43:00,
2013-05-16 12:48:00,78.0,45.0,29.84,ENE,74,0.0,10.0,31,0.00,,CLR,0.00,587.00,VWS V14.01,2013-05-16 17:48:00,
2013-05-16 12:53:00,78.2,43.4,29.84,East,86,2.0,10.0,29,0.00,,CLR,0.00,657.00,VWS V14.01,2013-05-16 17:53:00,
2013-05-16 12:58:00,78.3,42.5,29.84,ESE,111,3.0,10.0,28,0.00,,CLR,0.00,935.00,VWS V14.01,2013-05-16 17:58:00,
2013-05-16 13:03:00,78.3,42.5,29.85,NE,46,2.0,6.0,28,0.00,,CLR,0.00,967.00,VWS V14.01,2013-05-16 18:03:00,
2013-05-16 13:08:00,78.3,40.6,29.84,ENE,65,0.0,6.0,26,0.00,,CLR,0.00,969.00,VWS V14.01,2013-05-16 18:08:00,
2013-05-16 13:13:00,78.9,41.1,29.84,East,85,0.0,6.0,26,0.00,,CLR,0.00,837.00,VWS V14.01,2013-05-16 18:13:00,
2013-05-16 13:18:00,79.3,45.2,29.84,NW,323,4.0,6.0,30,0.00,,CLR,0.00,823.00,VWS V14.01,2013-05-16 18:18:00,
2013-05-16 13:23:00,79.4,41.6,29.84,ENE,57,0.0,6.0,26,0.00,,CLR,0.00,935.00,VWS V14.01,2013-05-16 18:23:00,
2013-05-16 13:28:00,80.2,44.2,29.84,NNE,12,2.0,6.0,28,0.00,,CLR,0.00,951.00,VWS V14.01,2013-05-16 18:28:00,
2013-05-16 13:33:00,80.2,40.2,29.84,East,91,2.0,5.0,24,0.00,,CLR,0.00,949.00,VWS V14.01,2013-05-16 18:33:00,
2013-05-16 13:38:00,79.4,40.5,29.83,ESE,109,1.0,8.0,25,0.00,,CLR,0.00,942.00,VWS V14.01,2013-05-16 18:38:00,
2013-05-16 13:43:00,79.7,41.8,29.83,NNE,14,0.0,8.0,26,0.00,,CLR,0.00,940.00,VWS V14.01,2013-05-16 18:43:00,
2013-05-16 13:48:00,80.0,44.9,29.83,North,360,2.0,8.0,29,0.00,,CLR,0.00,939.00,VWS V14.01,2013-05-16 18:48:00,
2013-05-16 13:53:00,79.8,40.9,29.83,ESE,105,0.0,8.0,25,0.00,,CLR,0.00,937.00,VWS V14.01,2013-05-16 18:53:00,
2013-05-16 13:58:00,79.5,39.6,29.83,SE,126,2.0,8.0,24,0.00,,CLR,0.00,937.00,VWS V14.01,2013-05-16 18:58:00,
2013-05-16 14:03:00,79.5,44.5,29.83,East,96,3.0,3.0,29,0.00,,CLR,0.00,935.00,VWS V14.01,2013-05-16 19:03:00,
2013-05-16 14:08:00,80.2,45.1,29.83,North,360,2.0,3.0,29,0.00,,CLR,0.00,921.00,VWS V14.01,2013-05-16 19:08:00,
2013-05-16 14:13:00,80.2,41.2,29.83,ESE,111,2.0,6.0,25,0.00,,CLR,0.00,909.00,VWS V14.01,2013-05-16 19:13:00,
2013-05-16 14:18:00,80.0,41.1,29.83,East,84,1.0,6.0,25,0.00,,CLR,0.00,875.00,VWS V14.01,2013-05-16 19:18:00,
2013-05-16 14:23:00,79.8,41.9,29.82,SE,132,2.0,6.0,26,0.00,,CLR,0.00,949.00,VWS V14.01,2013-05-16 19:23:00,
2013-05-16 14:28:00,79.3,41.5,29.82,SSW,211,0.0,6.0,26,0.00,,CLR,0.00,930.00,VWS V14.01,2013-05-16 19:28:00,
2013-05-16 14:34:00,80.0,44.9,29.82,ENE,63,1.0,2.0,29,0.00,,CLR,0.00,905.00,VWS V14.01,2013-05-16 19:34:00,
2013-05-16 14:39:00,81.0,43.9,29.82,ENE,57,2.0,3.0,27,0.00,,CLR,0.00,654.00,VWS V14.01,2013-05-16 19:39:00,
2013-05-16 14:44:00,81.5,42.3,29.82,North,11,2.0,3.0,25,0.00,,CLR,0.00,923.00,VWS V14.01,2013-05-16 19:44:00,
2013-05-16 14:49:00,81.5,43.3,29.82,SE,142,1.0,4.0,26,0.00,,CLR,0.00,895.00,VWS V14.01,2013-05-16 19:49:00,
2013-05-16 14:54:00,81.0,42.9,29.82,SE,142,0.0,4.0,26,0.00,,CLR,0.00,886.00,VWS V14.01,2013-05-16 19:54:00,
2013-05-16 14:59:00,80.7,41.7,29.82,North,5,1.0,4.0,25,0.00,,CLR,0.00,698.00,VWS V14.01,2013-05-16 19:59:00,
2013-05-16 15:04:00,80.9,42.8,29.82,NE,55,0.0,3.0,26,0.00,,CLR,0.00,860.00,VWS V14.01,2013-05-16 20:04:00,
2013-05-16 15:09:00,81.1,43.0,29.81,NE,55,1.0,3.0,26,0.00,,CLR,0.00,835.00,VWS V14.01,2013-05-16 20:09:00,
2013-05-16 15:14:00,81.4,42.2,29.82,NNE,18,1.0,3.0,25,0.00,,CLR,0.00,737.00,VWS V14.01,2013-05-16 20:14:00,
2013-05-16 15:19:00,81.9,44.7,29.82,ENE,65,3.0,3.0,27,0.00,,CLR,0.00,824.00,VWS V14.01,2013-05-16 20:19:00,
2013-05-16 15:24:00,81.6,45.4,29.82,West,277,1.0,3.0,28,0.00,,CLR,0.00,814.00,VWS V14.01,2013-05-16 20:24:00,
2013-05-16 15:29:00,80.7,44.6,29.82,SW,236,7.0,7.0,28,0.00,,CLR,0.00,802.00,VWS V14.01,2013-05-16 20:29:00,
2013-05-16 15:34:00,80.1,41.1,29.82,SSE,158,3.0,5.0,25,0.00,,CLR,0.00,788.00,VWS V14.01,2013-05-16 20:34:00,
2013-05-16 15:39:00,80.3,45.2,29.82,NNW,344,0.0,5.0,29,0.00,,CLR,0.00,779.00,VWS V14.01,2013-05-16 20:39:00,
2013-05-16 15:44:00,81.2,43.1,29.82,NE,40,1.0,5.0,26,0.00,,CLR,0.00,775.00,VWS V14.01,2013-05-16 20:44:00,
2013-05-16 15:49:00,81.6,46.3,29.81,ENE,60,2.0,5.0,29,0.00,,CLR,0.00,759.00,VWS V14.01,2013-05-16 20:49:00,
2013-05-16 15:54:00,81.8,43.6,29.81,NNW,344,4.0,5.0,26,0.00,,CLR,0.00,751.00,VWS V14.01,2013-05-16 20:54:00,
2013-05-16 15:59:00,81.9,43.7,29.81,NNW,333,3.0,5.0,26,0.00,,CLR,0.00,744.00,VWS V14.01,2013-05-16 20:59:00,
2013-05-16 16:04:00,81.8,45.5,29.81,SE,142,1.0,3.0,28,0.00,,CLR,0.00,744.00,VWS V14.01,2013-05-16 21:04:00,
2013-05-16 16:09:00,81.6,41.3,29.81,ESE,119,1.0,3.0,24,0.00,,CLR,0.00,728.00,VWS V14.01,2013-05-16 21:09:00,
2013-05-16 16:14:00,81.6,42.4,29.81,SE,141,3.0,5.0,25,0.00,,CLR,0.00,700.00,VWS V14.01,2013-05-16 21:14:00,
2013-05-16 16:19:00,81.0,43.9,29.81,SSW,199,2.0,5.0,27,0.00,,CLR,0.00,703.00,VWS V14.01,2013-05-16 21:19:00,
2013-05-16 16:24:00,81.1,43.0,29.81,SSE,148,3.0,8.0,26,0.00,,CLR,0.00,696.00,VWS V14.01,2013-05-16 21:24:00,
2013-05-16 16:29:00,81.0,41.9,29.81,SSE,160,1.0,8.0,25,0.00,,CLR,0.00,650.00,VWS V14.01,2013-05-16 21:29:00,
2013-05-16 16:34:00,80.9,41.8,29.81,SSW,196,6.0,6.0,25,0.00,,CLR,0.00,619.00,VWS V14.01,2013-05-16 21:34:00,
2013-05-16 16:39:00,80.9,41.8,29.81,South,186,1.0,7.0,25,0.00,,CLR,0.00,621.00,VWS V14.01,2013-05-16 21:39:00,
2013-05-16 16:44:00,81.1,44.0,29.81,SSE,151,1.0,7.0,27,0.00,,CLR,0.00,529.00,VWS V14.01,2013-05-16 21:44:00,
2013-05-16 16:49:00,81.4,43.3,29.82,SE,126,1.0,7.0,26,0.00,,CLR,0.00,564.00,VWS V14.01,2013-05-16 21:49:00,
2013-05-16 16:54:00,81.9,40.5,29.82,NNE,28,1.0,7.0,23,0.00,,CLR,0.00,559.00,VWS V14.01,2013-05-16 21:54:00,
2013-05-16 16:59:00,81.2,42.1,29.81,WSW,246,2.0,7.0,25,0.00,,CLR,0.00,608.00,VWS V14.01,2013-05-16 21:59:00,
2013-05-16 17:04:00,81.0,42.9,29.82,WSW,246,1.0,2.0,26,0.00,,CLR,0.00,531.00,VWS V14.01,2013-05-16 22:04:00,
2013-05-16 17:09:00,81.6,43.4,29.81,ESE,115,1.0,4.0,26,0.00,,CLR,0.00,485.00,VWS V14.01,2013-05-16 22:09:00,
2013-05-16 17:14:00,82.0,42.8,29.82,North,355,2.0,4.0,25,0.00,,CLR,0.00,499.00,VWS V14.01,2013-05-16 22:14:00,
2013-05-16 17:19:00,82.2,42.9,29.82,NNE,24,0.0,5.0,25,0.00,,CLR,0.00,503.00,VWS V14.01,2013-05-16 22:19:00,
2013-05-16 17:24:00,81.8,42.6,29.82,ESE,111,0.0,6.0,25,0.00,,CLR,0.00,496.00,VWS V14.01,2013-05-16 22:24:00,
2013-05-16 17:29:00,81.8,46.5,29.82,NNE,16,0.0,6.0,29,0.00,,CLR,0.00,483.00,VWS V14.01,2013-05-16 22:29:00,
2013-05-16 17:34:00,82.2,41.8,29.82,NNE,16,0.0,2.0,24,0.00,,CLR,0.00,436.00,VWS V14.01,2013-05-16 22:34:00,
2013-05-16 17:39:00,82.3,43.0,29.82,NNE,16,1.0,2.0,25,0.00,,CLR,0.00,431.00,VWS V14.01,2013-05-16 22:39:00,
2013-05-16 17:44:00,82.1,42.8,29.82,NNE,16,0.0,2.0,25,0.00,,CLR,0.00,380.00,VWS V14.01,2013-05-16 22:44:00,
2013-05-16 17:49:00,81.8,43.6,29.81,NW,325,1.0,4.0,26,0.00,,CLR,0.00,399.00,VWS V14.01,2013-05-16 22:49:00,
2013-05-16 17:54:00,81.5,40.2,29.82,NNW,335,1.0,5.0,23,0.00,,CLR,0.00,348.00,VWS V14.01,2013-05-16 22:54:00,
2013-05-16 17:59:00,81.5,45.3,29.82,East,88,0.0,5.0,28,0.00,,CLR,0.00,302.00,VWS V14.01,2013-05-16 22:59:00,
2013-05-16 18:04:00,81.4,41.2,29.82,East,88,0.0,1.0,24,0.00,,CLR,0.00,311.00,VWS V14.01,2013-05-16 23:04:00,
2013-05-16 18:09:00,81.0,41.9,29.82,East,88,1.0,3.0,25,0.00,,CLR,0.00,236.00,VWS V14.01,2013-05-16 23:09:00,
2013-05-16 18:14:00,80.4,42.4,29.82,East,88,0.0,3.0,26,0.00,,CLR,0.00,241.00,VWS V14.01,2013-05-16 23:14:00,
2013-05-16 18:19:00,80.1,42.2,29.82,East,88,0.0,3.0,26,0.00,,CLR,0.00,221.00,VWS V14.01,2013-05-16 23:19:00,
2013-05-16 18:24:00,79.9,42.0,29.82,East,88,0.0,3.0,26,0.00,,CLR,0.00,229.00,VWS V14.01,2013-05-16 23:24:00,
2013-05-16 18:29:00,79.5,41.7,29.82,East,88,1.0,3.0,26,0.00,,CLR,0.00,225.00,VWS V14.01,2013-05-16 23:29:00,
2013-05-16 18:34:00,79.2,40.4,29.82,East,88,0.0,1.0,25,0.00,,CLR,0.00,225.00,VWS V14.01,2013-05-16 23:34:00,
2013-05-16 18:39:00,79.0,43.2,29.82,East,88,0.0,1.0,28,0.00,,CLR,0.00,209.00,VWS V14.01,2013-05-16 23:39:00,
2013-05-16 18:44:00,79.0,41.2,29.82,North,355,2.0,2.0,26,0.00,,CLR,0.00,188.00,VWS V14.01,2013-05-16 23:44:00,
2013-05-16 18:49:00,79.0,41.2,29.82,North,355,0.0,2.0,26,0.00,,CLR,0.00,185.00,VWS V14.01,2013-05-16 23:49:00,
2013-05-16 18:54:00,78.8,42.0,29.82,North,5,0.0,2.0,27,0.00,,CLR,0.00,153.00,VWS V14.01,2013-05-16 23:54:00,
2013-05-16 18:59:00,78.6,43.7,29.82,North,5,0.0,2.0,29,0.00,,CLR,0.00,105.00,VWS V14.01,2013-05-16 23:59:00,
2013-05-16 19:04:00,78.2,39.5,29.82,North,11,1.0,1.0,25,0.00,,CLR,0.00,97.00,VWS V14.01,2013-05-17 00:04:00,
2013-05-16 19:09:00,77.8,40.2,29.82,North,11,1.0,2.0,26,0.00,,CLR,0.00,97.00,VWS V14.01,2013-05-17 00:09:00,
2013-05-16 19:14:00,77.4,39.9,29.82,North,11,0.0,3.0,26,0.00,,CLR,0.00,84.00,VWS V14.01,2013-05-17 00:14:00,
2013-05-16 19:19:00,76.9,39.4,29.82,North,11,0.0,3.0,26,0.00,,CLR,0.00,74.00,VWS V14.01,2013-05-17 00:19:00,
2013-05-16 19:24:00,76.5,39.1,29.82,NNE,19,0.0,4.0,26,0.00,,CLR,0.00,65.00,VWS V14.01,2013-05-17 00:24:00,
2013-05-16 19:29:00,76.1,39.7,29.83,NNE,19,0.0,1.0,27,0.00,,CLR,0.00,54.00,VWS V14.01,2013-05-17 00:29:00,
2013-05-16 19:34:00,75.7,39.4,29.83,NNE,19,1.0,3.0,27,0.00,,CLR,0.00,47.00,VWS V14.01,2013-05-17 00:34:00,
2013-05-16 19:39:00,75.1,37.9,29.83,NNE,22,1.0,4.0,26,0.00,,CLR,0.00,37.00,VWS V14.01,2013-05-17 00:39:00,
2013-05-16 19:44:00,74.5,36.4,29.83,NNE,22,0.0,4.0,25,0.00,,CLR,0.00,28.00,VWS V14.01,2013-05-17 00:44:00,
2013-05-16 19:49:00,73.9,35.9,29.84,NNE,22,0.0,4.0,25,0.00,,CLR,0.00,23.00,VWS V14.01,2013-05-17 00:49:00,
2013-05-16 19:54:00,73.4,35.5,29.84,ENE,58,1.0,6.0,25,0.00,,CLR,0.00,19.00,VWS V14.01,2013-05-17 00:54:00,
2013-05-16 19:59:00,73.0,36.1,29.84,NNE,32,2.0,3.0,26,0.00,,CLR,0.00,14.00,VWS V14.01,2013-05-17 00:59:00,
2013-05-16 20:04:00,72.4,33.6,29.85,NE,35,2.0,6.0,24,0.00,,CLR,0.00,11.00,VWS V14.01,2013-05-17 01:04:00,
2013-05-16 20:09:00,72.2,34.5,29.86,NNE,23,1.0,6.0,25,0.00,,CLR,0.00,7.00,VWS V14.01,2013-05-17 01:09:00,
2013-05-16 20:14:00,71.8,33.1,29.86,NNE,32,1.0,6.0,24,0.00,,CLR,0.00,5.00,VWS V14.01,2013-05-17 01:14:00,
2013-05-16 20:19:00,71.6,34.0,29.86,NE,42,4.0,6.0,25,0.00,,CLR,0.00,0.00,VWS V14.01,2013-05-17 01:19:00,
2013-05-16 20:24:00,71.3,33.7,29.86,NNE,28,1.0,6.0,25,0.00,,CLR,0.00,0.00,VWS V14.01,2013-05-17 01:24:00,
2013-05-16 20:29:00,71.1,33.5,29.86,NNE,27,1.0,2.0,25,0.00,,CLR,0.00,0.00,VWS V14.01,2013-05-17 01:29:00,
2013-05-16 20:34:00,70.9,34.3,29.87,NNE,29,3.0,4.0,26,0.00,,CLR,0.00,0.00,VWS V14.01,2013-05-17 01:34:00,
2013-05-16 20:39:00,70.6,34.1,29.87,NNE,17,3.0,4.0,26,0.00,,CLR,0.00,0.00,VWS V14.01,2013-05-17 01:39:00,
2013-05-16 20:44:00,70.3,34.8,29.87,NE,44,1.0,4.0,27,0.00,,CLR,0.00,0.00,VWS V14.01,2013-05-17 01:44:00,
2013-05-16 20:49:00,69.9,34.4,29.87,NE,44,2.0,4.0,27,0.00,,CLR,0.00,0.00,VWS V14.01,2013-05-17 01:49:00,
2013-05-16 20:54:00,69.4,34.9,29.87,NE,44,2.0,4.0,28,0.00,,CLR,0.00,0.00,VWS V14.01,2013-05-17 01:54:00,
2013-05-16 20:59:00,69.2,34.7,29.87,NNE,21,1.0,3.0,28,0.00,,FEW110,0.00,0.00,VWS V14.01,2013-05-17 01:59:00,
2013-05-16 21:04:00,69.0,34.6,29.87,NNE,26,1.0,3.0,28,0.00,,FEW110,0.00,0.00,VWS V14.01,2013-05-17 02:04:00,
2013-05-16 21:09:00,68.7,35.2,29.87,NNE,26,2.0,3.0,29,0.00,,FEW110,0.00,0.00,VWS V14.01,2013-05-17 02:09:00,
2013-05-16 21:14:00,68.4,36.6,29.88,NE,38,1.0,3.0,31,0.00,,FEW110,0.00,0.00,VWS V14.01,2013-05-17 02:14:00,
2013-05-16 21:19:00,68.1,36.3,29.88,NNE,16,0.0,4.0,31,0.00,,FEW110,0.00,0.00,VWS V14.01,2013-05-17 02:19:00,
2013-05-16 21:24:00,67.9,36.2,29.88,NNE,17,1.0,4.0,31,0.00,,FEW110,0.00,0.00,VWS V14.01,2013-05-17 02:24:00,
2013-05-16 21:30:00,67.7,36.0,29.88,NNE,20,1.0,2.0,31,0.00,,FEW110,0.00,0.00,VWS V14.01,2013-05-17 02:30:00,
2013-05-16 21:35:00,67.4,35.7,29.88,NNE,20,1.0,3.0,31,0.00,,FEW110,0.00,0.00,VWS V14.01,2013-05-17 02:35:00,
2013-05-16 21:40:00,67.2,36.4,29.88,NNE,32,1.0,3.0,32,0.00,,FEW110,0.00,0.00,VWS V14.01,2013-05-17 02:40:00,
2013-05-16 21:45:00,67.0,36.2,29.88,NNE,32,2.0,3.0,32,0.00,,FEW110,0.00,0.00,VWS V14.01,2013-05-17 02:45:00,
2013-05-16 21:50:00,66.8,36.0,29.88,NNE,32,2.0,3.0,32,0.00,,FEW110,0.00,0.00,VWS V14.01,2013-05-17 02:50:00,
2013-05-16 21:55:00,66.5,36.5,29.88,NE,53,1.0,3.0,33,0.00,,FEW110,0.00,0.00,VWS V14.01,2013-05-17 02:55:00,
2013-05-16 22:00:00,66.3,36.4,29.88,NE,53,0.0,1.0,33,0.00,,FEW110,0.00,0.00,VWS V14.01,2013-05-17 03:00:00,
2013-05-16 22:05:00,66.0,36.1,29.89,NE,53,1.0,2.0,33,0.00,,FEW110,0.00,0.00,VWS V14.01,2013-05-17 03:05:00,
2013-05-16 22:10:00,65.8,36.7,29.89,NE,53,0.0,2.0,34,0.00,,FEW110,0.00,0.00,VWS V14.01,2013-05-17 03:10:00,
2013-05-16 22:15:00,65.5,37.2,29.89,NE,53,0.0,2.0,35,0.00,,FEW110,0.00,0.00,VWS V14.01,2013-05-17 03:15:00,
2013-05-16 22:20:00,65.3,37.0,29.90,NE,53,1.0,2.0,35,0.00,,CLR,0.00,0.00,VWS V14.01,2013-05-17 03:20:00,
2013-05-16 22:25:00,65.2,36.9,29.90,NE,53,1.0,2.0,35,0.00,,CLR,0.00,0.00,VWS V14.01,2013-05-17 03:25:00,
2013-05-16 22:30:00,65.0,36.7,29.89,NE,53,0.0,2.0,35,0.00,,CLR,0.00,0.00,VWS V14.01,2013-05-17 03:30:00,
2013-05-16 22:35:00,65.0,36.7,29.89,NE,53,1.0,2.0,35,0.00,,CLR,0.00,0.00,VWS V14.01,2013-05-17 03:35:00,
2013-05-16 22:40:00,64.9,38.0,29.89,NE,53,0.0,2.0,37,0.00,,CLR,0.00,0.00,VWS V14.01,2013-05-17 03:40:00,
2013-05-16 22:45:00,64.7,37.2,29.89,NE,53,0.0,2.0,36,0.00,,CLR,0.00,0.00,VWS V14.01,2013-05-17 03:45:00,
2013-05-16 22:50:00,64.6,37.8,29.89,NE,53,0.0,3.0,37,0.00,,CLR,0.00,0.00,VWS V14.01,2013-05-17 03:50:00,
2013-05-16 22:55:00,64.4,37.6,29.89,NE,53,2.0,3.0,37,0.00,,CLR,0.00,0.00,VWS V14.01,2013-05-17 03:55:00,
2013-05-16 23:00:00,64.3,37.5,29.89,NE,53,1.0,2.0,37,0.00,,CLR,0.00,0.00,VWS V14.01,2013-05-17 04:00:00,
2013-05-16 23:01:00,64.2,37.4,29.89,NE,53,0.0,2.0,37,0.00,,CLR,0.00,0.00,VWS V14.01,2013-05-17 04:01:00,
2013-05-16 23:06:00,64.1,37.3,29.89,NE,53,1.0,2.0,37,0.00,,CLR,0.00,0.00,VWS V14.01,2013-05-17 04:06:00,
2013-05-16 23:11:00,64.0,37.2,29.89,NE,53,1.0,2.0,37,0.00,,CLR,0.00,0.00,VWS V14.01,2013-05-17 04:11:00,
2013-05-16 23:16:00,64.0,37.2,29.89,NE,53,2.0,2.0,37,0.00,,CLR,0.00,0.00,VWS V14.01,2013-05-17 04:16:00,
2013-05-16 23:21:00,63.9,37.1,29.89,NE,53,0.0,2.0,37,0.00,,CLR,0.00,0.00,VWS V14.01,2013-05-17 04:21:00,
2013-05-16 23:26:00,63.8,37.0,29.89,NE,53,0.0,2.0,37,0.00,,CLR,0.00,0.00,VWS V14.01,2013-05-17 04:26:00,
2013-05-16 23:31:00,63.8,37.0,29.89,NE,53,1.0,2.0,37,0.00,,CLR,0.00,0.00,VWS V14.01,2013-05-17 04:31:00,
2013-05-16 23:36:00,63.8,36.4,29.89,NE,53,1.0,2.0,36,0.00,,CLR,0.00,0.00,VWS V14.01,2013-05-17 04:36:00,
2013-05-16 23:41:00,63.9,37.1,29.89,NE,53,0.0,2.0,37,0.00,,CLR,0.00,0.00,VWS V14.01,2013-05-17 04:41:00,
2013-05-16 23:46:00,64.0,36.5,29.89,NE,53,1.0,3.0,36,0.00,,CLR,0.00,0.00,VWS V14.01,2013-05-17 04:46:00,
2013-05-16 23:51:00,64.1,36.6,29.89,NE,53,1.0,3.0,36,0.00,,CLR,0.00,0.00,VWS V14.01,2013-05-17 04:51:00,
2013-05-16 23:56:00,64.2,36.7,29.89,NE,55,1.0,3.0,36,0.00,,CLR,0.00,0.00,VWS V14.01,2013-05-17 04:56:00,